Easton, MD

2:42 PM EDT on July 23, 2017 (GMT -0400)
Easton / Newnam

Weather History for KESN - March, 2014

Change the Weather History Date:

Wednesday, March 12, 2014

  Actual Average Record
Temperature  
Mean Temperature 52 °F -  
Max Temperature 64 °F 57 °F 72 °F (1967)
Min Temperature 38 °F 35 °F 10 °F (1960)
Degree Days  
Heating Degree Days 13    
Growing Degree Days 2 (Base 50)    
Moisture  
Dew Point 41 °F    
Average Humidity 66    
Maximum Humidity 94    
Minimum Humidity 49    
Precipitation  
Precipitation 0.00 in - - ()
Sea Level Pressure  
Sea Level Pressure 29.47 in    
Wind  
Wind Speed 6 mph (SSW)    
Max Wind Speed 33 mph    
Max Gust Speed 41 mph    
Visibility 9 miles    
Events Rain    
Averages and records for this station are not official NWS values.
T = Trace of Precipitation, MM = Missing Value Source: NWS Daily Summary

Daily Weather History Graph

Daily Weather History Graph

Search for Another Location

Airport or City:

Trip Planner

Search our weather history database for the weather conditions in past years. The results will help you decide how hot, cold, wet, or windy it might be!

Date:

Astronomy

Mar. 12, 2014 Rise Set
Actual Time 7:20 AM EDT 7:08 PM EDT
Civil Twilight 6:53 AM EDT 7:34 PM EDT
Nautical Twilight 6:22 AM EDT 8:05 PM EDT
Astronomical Twilight 5:51 AM EDT 8:36 PM EDT
Moon 3:38 PM EDT (3/12) 4:48 AM EDT (3/12)
Length of Visible Light 12h 41m
Length of Day
11h 48m
Waxing Gibbous, 85% of the Moon is Illuminated
Mar 12
Waxing Gibbous
Mar 16
Full
Mar 23
Last Quarter
Mar 30
New
Apr 7
First Quarter

Hourly Weather History & Observations

Time (EDT) Temp. Windchill Dew Point Humidity Pressure Visibility Wind Dir Wind Speed Gust Speed Precip Events Conditions
12:04 AM 54.9 °F - 37.0 °F 51% 29.69 in - SSE 4.6 mph - N/A   Clear
12:24 AM 54.0 °F - 37.0 °F 53% 29.68 in - SSE 4.6 mph - N/A   Clear
12:44 AM 53.6 °F - 37.0 °F 53% 29.68 in - South 4.6 mph - N/A   Clear
1:04 AM 54.0 °F - 36.7 °F 52% 29.68 in - Calm Calm - N/A   Clear
1:24 AM 54.0 °F - 36.3 °F 51% 29.68 in - SSE 3.5 mph - N/A   Clear
1:44 AM 52.9 °F - 36.5 °F 54% 29.67 in - Calm Calm - N/A   Clear
2:04 AM 52.3 °F - 36.1 °F 54% 29.66 in - Calm Calm - N/A   Clear
2:24 AM 52.5 °F - 36.0 °F 53% 29.65 in - Calm Calm - N/A   Clear
2:45 AM 51.6 °F - 36.5 °F 56% 29.64 in - Calm Calm - N/A   Clear
3:05 AM 51.8 °F - 36.5 °F 56% 29.63 in - Calm Calm - N/A   Clear
3:25 AM 50.0 °F - 36.9 °F 61% 29.62 in - SSE 3.5 mph - N/A   Clear
3:45 AM 50.9 °F - 36.7 °F 58% 29.61 in - South 4.6 mph - N/A   Clear
4:05 AM 49.1 °F - 37.4 °F 64% 29.59 in - SSE 3.5 mph - N/A   Clear
4:25 AM 49.8 °F - 38.3 °F 65% 29.58 in - Calm Calm - N/A   Clear
4:45 AM 49.3 °F - 38.7 °F 67% 29.57 in - Calm Calm - N/A   Clear
5:05 AM 48.0 °F - 38.7 °F 70% 29.57 in - Calm Calm - N/A   Clear
5:25 AM 47.8 °F - 39.2 °F 72% 29.56 in - Calm Calm - N/A   Clear
5:45 AM 45.7 °F - 38.7 °F 76% 29.56 in - Calm Calm - N/A   Clear
5:55 AM 44.6 °F - 39.2 °F 81% 29.56 in 10.0 mi Calm Calm - N/A   Clear
6:05 AM 44.8 °F - 38.8 °F 80% 29.56 in - Calm Calm - N/A   Clear
6:23 AM 45.1 °F - 39.4 °F 80% 29.55 in - Calm Calm - N/A   Clear
6:52 AM 44.6 °F 41.4 °F 39.2 °F 81% 29.54 in 10.0 mi SSE 5.8 mph - N/A   Scattered Clouds
7:55 AM 50.0 °F - 42.8 °F 76% 29.52 in 10.0 mi South 3.5 mph - N/A   Scattered Clouds
8:53 AM 55.4 °F - 44.6 °F 67% 29.50 in 10.0 mi South 6.9 mph - N/A   Mostly Cloudy
9:50 AM 59.0 °F - 44.6 °F 59% 29.46 in 10.0 mi SSW 12.7 mph - N/A   Overcast
10:53 AM 60.8 °F - 44.6 °F 55% 29.40 in 10.0 mi South 9.2 mph - N/A   Overcast
11:45 AM 64.4 °F - 44.6 °F 49% 29.37 in 10.0 mi SSW 9.2 mph 17.3 mph N/A   Overcast
12:45 PM 62.6 °F - 46.4 °F 55% 29.35 in 10.0 mi SSW 16.1 mph 26.5 mph N/A   Overcast
1:50 PM 64.4 °F - 50.0 °F 59% 29.30 in 10.0 mi SSW 13.8 mph - N/A   Overcast
2:45 PM 62.6 °F - 55.4 °F 77% 29.25 in 4.0 mi South 12.7 mph - N/A Rain Light Rain
3:53 PM 60.8 °F - 57.2 °F 88% 29.19 in 7.0 mi SSW 18.4 mph 25.3 mph N/A   Overcast
4:45 PM 62.6 °F - 57.2 °F 82% 29.16 in 10.0 mi SSW 12.7 mph 18.4 mph N/A   Overcast
5:45 PM 60.8 °F - 55.4 °F 82% 29.13 in 10.0 mi SSW 10.4 mph 18.4 mph N/A   Overcast
6:57 PM 62.6 °F - 57.2 °F 82% 29.11 in 10.0 mi SSW 12.7 mph 20.7 mph N/A   Overcast
7:45 PM 60.8 °F - 57.2 °F 88% 29.14 in 3.0 mi West 11.5 mph - N/A Rain Heavy Rain
8:29 PM 57.2 °F - 55.4 °F 94% 29.18 in 6.0 mi NW 13.8 mph 25.3 mph N/A   Overcast
8:45 PM 57.2 °F - 48.2 °F 72% 29.20 in 7.0 mi WNW 28.8 mph 40.3 mph N/A   Overcast
10:47 PM 41.9 °F 32.6 °F 29.1 °F 61% 29.38 in - NW 21.9 mph 33.4 mph N/A   Clear
11:07 PM 41.2 °F 31.9 °F 28.8 °F 61% 29.39 in - NW 20.7 mph 32.2 mph N/A   Scattered Clouds
11:27 PM 40.6 °F 32.3 °F 27.9 °F 60% 29.41 in - NW 16.1 mph 32.2 mph N/A   Overcast
11:47 PM 38.8 °F 26.3 °F 26.4 °F 61% 29.42 in - NNW 33.4 mph 41.4 mph N/A   Mostly Cloudy